Location: Cardiff
(53.7833°N, 113.6000°W)
Time: 01:05:58
(UTC+00:00)

RS-15 - Pass Details

Date: 06 December 2023
Orbit: 1893 x 2151 km, 64.8° (Epoch: 24 February)

Event Time Altitude Azimuth Distance (km) Brightness Sun altitude
Exits shadow 14:51:05 - 309° (NW) 4,769 9.4 -6.3°
Reaches altitude 10° 14:52:56 10° 302° (WNW) 4,410 9.2 -6.0°
Maximum altitude 14:59:19 17° 266° (W) 3,773 9.1 -5.2°
Drops below altitude 10° 15:05:37 10° 230° (SW) 4,304 9.7 -4.5°
Sets 15:10:24 0° 212° (SSW) 5,275 10.3 -3.9°
